Tracking 28794 objects as of 19-Apr-2024
HD Live streaming from Space Station
objects crossing your sky now

COSMOS 1038

Track COSMOS 1038 now!
10-day predictions
COSMOS 1038 is classified as:


NORAD ID: 11047
Int'l Code: 1978-091E
Perigee: 1,483.4 km
Apogee: 1,494.1 km
Inclination: 74.0 °
Period: 115.6 minutes
Semi major axis: 7859 km
RCS: 0.7055 m2 (medium)
Launch date: October 4, 1978
Source: Commonwealth of Independent States (former USSR) (CIS)
Launch site: PLESETSK MISSILE AND SPACE COMPLEX (PKMTR)
Your satellite tracking list
Your tracking list is empty




NASA's NSSDC Master Catalog

Two Line Element Set (TLE):
1 11047U 78091E   24110.43147344  .00000026  00000-0  28674-3 0  9994
2 11047  74.0317 113.5319 0006784 236.1026 277.5817 12.45915793662596
Source of the keplerian elements: AFSPC